TimeMST,TemperatureF,Dew PointF,Humidity,Sea Level PressureIn,VisibilityMPH,Wind Direction,Wind SpeedMPH,Gust SpeedMPH,PrecipitationIn,Events,Conditions,WindDirDegrees,DateUTC
12:53 AM,19.9,8.1,60,30.43,10.0,Calm,Calm,-,N/A,,Clear,0,2013-11-21 07:53:00
1:53 AM,17.1,9.0,71,30.46,10.0,Calm,Calm,-,N/A,,Clear,0,2013-11-21 08:53:00
2:53 AM,15.1,7.0,70,30.51,10.0,Calm,Calm,-,N/A,,Clear,0,2013-11-21 09:53:00
3:53 AM,16.0,7.0,68,30.53,10.0,Calm,Calm,-,N/A,,Clear,0,2013-11-21 10:53:00
4:53 AM,12.9,7.0,77,30.57,10.0,Calm,Calm,-,N/A,,Clear,0,2013-11-21 11:53:00
5:53 AM,12.0,6.1,77,30.61,10.0,Calm,Calm,-,N/A,,Clear,0,2013-11-21 12:53:00
6:53 AM,10.9,5.0,77,30.63,10.0,NNW,3.5,-,N/A,,Clear,340,2013-11-21 13:53:00
7:53 AM,12.0,5.0,73,30.67,10.0,Calm,Calm,-,N/A,,Clear,0,2013-11-21 14:53:00
8:53 AM,15.1,8.1,74,30.69,10.0,Calm,Calm,-,N/A,,Clear,0,2013-11-21 15:53:00
9:53 AM,19.0,10.0,68,30.70,10.0,Calm,Calm,-,N/A,,Clear,0,2013-11-21 16:53:00
10:53 AM,23.0,10.0,58,30.71,10.0,Calm,Calm,-,N/A,,Clear,0,2013-11-21 17:53:00
11:53 AM,24.1,10.9,57,30.70,10.0,Calm,Calm,-,N/A,,Clear,0,2013-11-21 18:53:00
12:53 PM,26.1,10.0,51,30.68,10.0,Calm,Calm,-,N/A,,Clear,0,2013-11-21 19:53:00
1:53 PM,28.0,10.0,47,30.68,10.0,Calm,Calm,-,N/A,,Clear,0,2013-11-21 20:53:00
2:53 PM,28.9,10.0,45,30.67,10.0,Calm,Calm,-,N/A,,Clear,0,2013-11-21 21:53:00
3:53 PM,28.9,3.9,35,30.67,10.0,Calm,Calm,-,N/A,,Clear,0,2013-11-21 22:53:00
4:53 PM,26.1,7.0,44,30.69,10.0,Calm,Calm,-,N/A,,Clear,0,2013-11-21 23:53:00
5:53 PM,19.9,10.0,65,30.71,10.0,Calm,Calm,-,N/A,,Clear,0,2013-11-22 00:53:00
6:53 PM,19.0,9.0,65,30.73,10.0,Calm,Calm,-,N/A,,Clear,0,2013-11-22 01:53:00
7:53 PM,19.9,8.1,60,30.74,10.0,Calm,Calm,-,N/A,,Clear,0,2013-11-22 02:53:00
8:53 PM,16.0,8.1,71,30.76,10.0,Calm,Calm,-,N/A,,Clear,0,2013-11-22 03:53:00
9:53 PM,16.0,8.1,71,30.76,10.0,Calm,Calm,-,N/A,,Clear,0,2013-11-22 04:53:00
10:53 PM,16.0,8.1,71,30.77,10.0,Calm,Calm,-,N/A,,Clear,0,2013-11-22 05:53:00
11:53 PM,16.0,8.1,71,30.78,10.0,Calm,Calm,-,N/A,,Clear,0,2013-11-22 06:53:00